This demonstration page uses our WeatherBlox Daily Observations layout. Learn more.

Left ArrowRight Arrow

30.00354, -91.81873

Hourly Observations for September 7, 2022

Temp ( °F °C ) Dew Point ( °F °C ) Humidity (%) Winds ( mph kmh ) Pressure ( in mb ) Visibility ( mi km ) Precip ( " mm )
12:53 am 00:53 Clear 72 22.2 70 21.1 93 93 WSW 3 6 30.04 1017 10 16 0.00 0.00
2:53 am 02:53 Clear 72 22.2 70 21.1 93 93 N 6 9 30.03 1017 10 16 0.00 0.00
3:53 am 03:53 Clear 71 21.7 69 20.6 93 93 Calm 30.03 1017 10 16 0.00 0.00
4:53 am 04:53 Clear 70 21.1 68 20 93 93 SE 3 6 30.01 1016 10 16 0.00 0.00
5:53 am 05:53 Clear 72 22.2 69 20.6 91 91 N 5 7 30.02 1017 10 16 0.00 0.00
6:53 am 06:53 Sunny with Mist and Fog 70 21.1 68 20 93 93 Calm 30.02 1017 3 5 0.00 0.00
7:53 am 07:53 Sunny 74 23.3 71 21.7 91 91 N 3 6 30.03 1017 10 16 0.00 0.00
8:53 am 08:53 Sunny 79 26.1 72 22.2 79 79 NNW 5 7 30.02 1017 10 16 0.00 0.00
9:53 am 09:53 Sunny 83 28.3 70 21.1 65 65 VRB 6 9 30.03 1017 10 16 0.00 0.00
10:53 am 10:53 Sunny 86 30 71 21.7 61 61 N 6 9 30.03 1017 10 16 0.00 0.00
11:53 am 11:53 Mostly Sunny 88 31.1 70 21.1 55 55 N 7 11 30.02 1017 10 16 0.00 0.00
12:53 pm 12:53 Mostly Sunny 88 31.1 70 21.1 55 55 NE 6 9 29.99 1016 10 16 0.00 0.00
1:53 pm 13:53 Mostly Cloudy 90 32.2 69 20.6 50 50 VRB 5 7 29.97 1015 10 16 0.00 0.00
2:53 pm 14:53 Sunny 92 33.3 68 20 46 46 VRB 6 9 29.93 1014 10 16 0.00 0.00
3:53 pm 15:53 Sunny 90 32.2 67 19.4 47 47 ENE 6 9 29.92 1013 10 16 0.00 0.00
4:53 pm 16:53 Mostly Sunny 91 32.8 69 20.6 49 49 VRB 6 9 29.89 1012 10 16 0.00 0.00
5:40 pm 17:40 Sunny with Nearby Thunderstorms 90 32.2 68 20 49 49 VRB 3 6 29.88 1012 10 16 0.00 0.00
5:53 pm 17:53 Mostly Sunny 88 31.1 70 21.1 55 55 NW 6 9 29.87 1011 10 16 0.00 0.00
6:53 pm 18:53 Partly Cloudy with Nearby Thunderstorms 81 27.2 69 20.6 67 67 N 10 17 29.90 1013 10 16 0.00 0.00
7:21 pm 19:21 Mostly Cloudy with Thunderstorms 79 26.1 71 21.7 77 77 W 7 11 29.91 1013 10 16 0.00 0.00
7:53 pm 19:53 Cloudy with Thunderstorms 78 25.6 67 19.4 69 69 undefined N/A 29.93 1013 10 16 0.00 0.00
8:25 pm 20:25 Cloudy with Nearby Thunderstorms 74 23.3 71 21.7 91 91 S 7 11 29.95 1014 10 16 0.03 0.76
8:40 pm 20:40 Cloudy with Light Rain 73 22.8 69 20.6 87 87 SSW 7 11 29.94 1014 10 16 0.03 0.76
8:53 pm 20:53 Mostly Cloudy 73 22.8 70 21.1 90 90 SW 9 15 29.93 1014 10 16 0.03 0.76
9:53 pm 21:53 Clear 73 22.8 69 20.6 87 87 W 8 13 29.93 1014 10 16 0.00 0.00
10:53 pm 22:53 Clear 75 23.9 69 20.6 82 82 W 6 9 29.92 1013 10 16 0.00 0.00
11:53 pm 23:53 Clear 72 22.2 69 20.6 91 91 NNW 5 7 29.91 1013 10 16 0.00 0.00

Powered by AerisWeather